Tracking 18840 objects as of 18-November-2017
HD Live streaming from Space Station
objects crossing your sky now

FENGYUN 1C DEB

Track FENGYUN 1C DEB now!
10-day predictions


NORAD ID: 30350
Int'l Code: 1999-025ABM
Perigee: 808.7 km
Apogee: 1,145.7 km
Inclination: 98.1 °
Period: 104.5 minutes
Semi major axis: 7348 km
RCS: 0.0298 m2 (small)
Launch date: May 10, 1999
Source: People's Republic of China (PRC)
Launch site: Taiyaun Space Center, China (TSC)

Note: This is SATELLITE DEBRIS
aabbcc
Your satellite tracking list
Your tracking list is empty




NASA's NSSDC Master Catalog

Two Line Element Set (TLE):
1 30350U 99025ABM 17321.77611292  .00000342  00000-0  30501-3 0  9996
2 30350  98.0976 150.8844 0229365 104.8787 319.7953 13.78261352543595
Source of the keplerian elements: AFSPC